VK2XSE Weather Reports


time (UTC)temp
C
wind
direction
speed
KPH
gust
KPH
rain 1hr
cm
rain 24hr
cm
rain mn
cm
humidity
%
barometer
mb
20260510180017 9 113 1.6 3.2 0.00 0.00 0.00 87 1029.6
20260510175017 9 90 1.6 1.6 0.00 0.00 0.00 86 1029.7
20260510174017 9 90 1.6 1.6 0.00 0.00 0.00 87 1029.6
20260510173017 9 0.0 1.6 0.00 0.00 0.00 89 1029.6
20260510172017 9 113 1.6 4.8 0.00 0.00 0.00 89 1029.6
20260510171017 8 158 1.6 3.2 0.00 0.00 0.00 89 1029.5
20260510170017 8 0.0 0.0 0.00 0.00 0.00 88 1029.6
20260510165017 8 0.0 0.0 0.00 0.00 0.00 87 1029.5
20260510164017 9 0.0 0.0 0.00 0.00 0.00 87 1029.6
20260510163017 9 0.0 0.0 0.00 0.00 0.00 86 1029.6
20260510162017 9 0.0 0.0 0.00 0.00 0.00 86 1029.7
20260510161017 9 0.0 0.0 0.00 0.00 0.00 87 1029.7
20260510160017 9 0.0 1.6 0.00 0.00 0.00 87 1029.7
20260510155017 9 0.0 1.6 0.00 0.00 0.00 87 1029.7
20260510154017 9 0.0 3.2 0.00 0.00 0.00 86 1029.6
20260510153017 9 180 1.6 1.6 0.00 0.00 0.00 86 1029.6
20260510152017 9 0.0 1.6 0.00 0.00 0.00 83 1029.6
20260510151017 10 0 1.6 1.6 0.00 0.00 0.00 83 1029.5
20260510150017 10 0.0 1.6 0.00 0.00 0.00 83 1029.6
20260510145017 10 0.0 3.2 0.00 0.00 0.00 83 1029.7
20260510144017 10 0.0 0.0 0.00 0.00 0.00 82 1029.8
20260510143017 10 0.0 3.2 0.00 0.00 0.00 80 1029.7
20260510142017 10 0.0 0.0 0.00 0.00 0.00 80 1029.8
20260510141017 11 0.0 0.0 0.00 0.00 0.00 80 1029.7
20260510140017 11 180 1.6 1.6 0.00 0.00 0.00 80 1029.6
20260510135016 11 180 1.6 3.2 0.00 0.00 0.00 79 1029.5
20260510134017 11 180 3.2 3.2 0.00 0.00 0.00 80 1029.5
20260510133016 11 180 3.2 3.2 0.00 0.00 0.00 81 1029.4
20260510132016 10 180 1.6 3.2 0.00 0.00 0.00 81 1029.4
20260510131016 11 0.0 1.6 0.00 0.00 0.00 80 1029.5
20260510130016 11 0.0 0.0 0.00 0.00 0.00 79 1029.6
20260510125018 11 0.0 0.0 0.00 0.00 0.00 78 1029.6
20260510124018 11 0.0 0.0 0.00 0.00 0.00 78 1029.6
20260510123018 11 0.0 0.0 0.00 0.00 0.00 78 1029.7
20260510122018 11 0.0 1.6 0.00 0.00 0.00 78 1029.6
20260510121018 11 180 1.6 3.2 0.00 0.00 0.00 78 1029.6
20260510120018 12 180 3.2 3.2 0.00 0.00 0.00 76 1029.5
20260510115018 12 203 3.2 4.8 0.00 0.00 0.00 75 1029.5
20260510114018 12 203 1.6 1.6 0.00 0.00 0.00 74 1029.4
20260510113018 12 0.0 1.6 0.00 0.00 0.00 73 1029.4
20260510112018 12 203 1.6 1.6 0.00 0.00 0.00 72 1029.2
20260510111018 13 203 1.6 3.2 0.00 0.00 0.00 71 1029.2
20260510110018 13 0.0 1.6 0.00 0.00 0.00 70 1029.2
20260510105018 13 203 1.6 3.2 0.00 0.00 0.00 70 1029.1
20260510104018 13 203 1.6 3.2 0.00 0.00 0.00 69 1029.1
20260510103019 13 203 3.2 3.2 0.00 0.00 0.00 69 1029.2
20260510102018 14 203 1.6 3.2 0.00 0.00 0.00 68 1029.2
20260510101018 14 203 3.2 3.2 0.00 0.00 0.00 68 1029.1
20260510100018 14 203 3.2 3.2 0.00 0.00 0.00 68 1029.1
20260510095018 15 203 3.2 4.8 0.00 0.00 0.00 67 1029.0
20260510094018 15 203 4.8 4.8 0.00 0.00 0.00 67 1029.0
20260510093018 15 203 3.2 4.8 0.00 0.00 0.00 67 1028.9
20260510092018 15 0.0 1.6 0.00 0.00 0.00 67 1028.9
20260510091018 15 0.0 1.6 0.00 0.00 0.00 66 1028.7
20260510090018 15 0.0 1.6 0.00 0.00 0.00 65 1028.7
20260510085018 15 203 3.2 4.8 0.00 0.00 0.00 65 1028.5
20260510084018 15 180 4.8 6.4 0.00 0.00 0.00 64 1028.4
20260510083018 16 203 4.8 6.4 0.00 0.00 0.00 63 1028.3
20260510082018 16 203 3.2 6.4 0.00 0.00 0.00 62 1028.2
20260510081018 16 180 4.8 6.4 0.00 0.00 0.00 61 1028.1
20260510080018 17 180 4.8 6.4 0.00 0.00 0.00 59 1028.0
20260510075018 17 180 4.8 6.4 0.00 0.00 0.00 58 1028.0
20260510074059 18 180 3.2 4.8 0.00 0.00 0.00 56 1028.1
20260510073018 18 0.0 3.2 0.00 0.00 0.00 56 1027.9
20260510072018 19 0.0 3.2 0.00 0.00 0.00 55 1027.8
20260510071018 20 0.0 3.2 0.00 0.00 0.00 54 1027.7
20260510070018 20 0.0 3.2 0.00 0.00 0.00 53 1027.7
20260510065018 20 203 1.6 4.8 0.00 0.00 0.00 52 1027.6
20260510064018 20 180 1.6 3.2 0.00 0.00 0.00 49 1027.6
20260510063017 20 180 3.2 4.8 0.00 0.00 0.00 49 1027.5
20260510062017 21 203 1.6 6.4 0.00 0.00 0.00 49 1027.6
20260510061017 21 0.0 1.6 0.00 0.00 0.00 47 1027.5
20260510060017 21 0.0 3.2 0.00 0.00 0.00 46 1027.5
20260510055017 21 135 1.6 4.8 0.00 0.00 0.00 47 1027.5
20260510054017 21 0.0 3.2 0.00 0.00 0.00 47 1027.5
20260510053017 21 135 1.6 4.8 0.00 0.00 0.00 47 1027.5
20260510052017 21 180 1.6 3.2 0.00 0.00 0.00 47 1027.4
20260510051017 21 180 1.6 4.8 0.00 0.00 0.00 47 1027.4
20260510050017 21 135 1.6 4.8 0.00 0.00 0.00 47 1027.3
20260510045017 21 180 1.6 4.8 0.00 0.00 0.00 50 1027.3
20260510044017 20 180 1.6 8.0 0.00 0.00 0.00 50 1027.3
20260510043017 21 270 1.6 4.8 0.00 0.00 0.00 49 1027.4
20260510042017 21 248 1.6 8.0 0.00 0.00 0.00 49 1027.3
20260510041017 20 180 1.6 4.8 0.00 0.00 0.00 51 1027.4
20260510040017 20 90 1.6 3.2 0.00 0.00 0.00 51 1027.4
20260510035017 20 203 1.6 4.8 0.00 0.00 0.00 52 1027.5
20260510034017 20 180 1.6 8.0 0.00 0.00 0.00 53 1027.6
20260510033017 20 180 1.6 3.2 0.00 0.00 0.00 54 1027.7
20260510032017 20 135 1.6 4.8 0.00 0.00 0.00 54 1027.8
20260510031017 20 180 1.6 3.2 0.00 0.00 0.00 55 1027.9
20260510030017 20 135 1.6 6.4 0.00 0.00 0.00 55 1028.0
20260510025017 19 45 1.6 4.8 0.00 0.00 0.00 55 1028.2
20260510024017 19 0.0 4.8 0.00 0.00 0.00 57 1028.4
20260510023017 19 180 1.6 3.2 0.00 0.00 0.00 57 1028.6
20260510022017 19 135 1.6 6.4 0.00 0.00 0.00 58 1028.7
20260510021017 18 158 1.6 4.8 0.00 0.00 0.00 57 1028.9
20260510020017 18 180 1.6 4.8 0.00 0.00 0.00 59 1029.0
20260510015017 18 135 1.6 6.4 0.00 0.00 0.00 59 1029.3
20260510014017 17 0.0 3.2 0.00 0.00 0.00 62 1029.3
20260510013017 17 90 1.6 3.2 0.00 0.00 0.00 62 1029.4
20260510012017 17 68 1.6 3.2 0.00 0.00 0.00 64 1029.5
20260510011017 16 45 1.6 4.8 0.00 0.00 0.00 66 1029.6
20260510010017 16 135 1.6 4.8 0.00 0.00 0.00 68 1029.7
20260510005017 16 0.0 3.2 0.00 0.00 0.00 70 1029.7
20260510004017 15 158 1.6 3.2 0.00 0.00 0.00 72 1029.8
20260510003017 15 158 1.6 4.8 0.00 0.00 0.00 73 1029.8
20260510002017 15 0.0 3.2 0.00 0.00 0.00 77 1029.8
20260510001017 13 135 1.6 3.2 0.00 0.00 0.00 83 1029.8
20260510000017 12 0.0 0.0 0.00 0.00 0.00 92 1029.7
20260509235016 12 0.0 3.2 0.00 0.00 0.00 95 1029.7
20260509234016 11 0.0 1.6 0.00 0.00 0.00 95 1029.7
20260509233017 11 0.0 3.2 0.00 0.00 0.00 95 1029.7
20260509232016 10 0.0 3.2 0.00 0.00 0.00 95 1029.7
20260509231016 9 0.0 3.2 0.00 0.00 0.00 95 1029.6
20260509230018 8 0.0 3.2 0.00 0.00 0.00 95 1029.5
20260509225018 7 0.0 1.6 0.00 0.00 0.00 94 1029.4
20260509224018 6 0.0 0.0 0.00 0.00 0.00 93 1029.3
20260509223017 6 0.0 3.2 0.00 0.00 0.00 93 1029.2
20260509222018 5 0.0 0.0 0.00 0.00 0.00 93 1029.0
20260509221018 5 0.0 0.0 0.00 0.00 0.00 93 1029.0
20260509220018 5 0.0 0.0 0.00 0.00 0.00 92 1028.9
20260509215018 5 0.0 0.0 0.00 0.00 0.00 92 1028.7
20260509214018 5 0.0 0.0 0.00 0.00 0.00 91 1028.6
20260509213018 5 0.0 0.0 0.00 0.00 0.00 91 1028.5
20260509212018 5 0.0 0.0 0.00 0.00 0.00 91 1028.4
20260509211018 5 0.0 0.0 0.00 0.00 0.00 91 1028.4
20260509210018 5 0.0 3.2 0.00 0.00 0.00 90 1028.2
20260509205018 5 0.0 3.2 0.00 0.00 0.00 90 1028.1
20260509204018 5 0.0 3.2 0.00 0.00 0.00 90 1028.0
20260509203018 5 0.0 0.0 0.00 0.00 0.00 90 1027.9
20260509202018 5 0.0 0.0 0.00 0.00 0.00 90 1027.9
20260509201018 5 0.0 0.0 0.00 0.00 0.00 89 1027.8
20260509200018 5 0.0 0.0 0.00 0.00 0.00 89 1027.8
20260509195019 5 0.0 0.0 0.00 0.00 0.00 90 1027.6
20260509194018 5 0.0 0.0 0.00 0.00 0.00 90 1027.5
20260509193018 6 0.0 0.0 0.00 0.00 0.00 89 1027.5
20260509192018 6 0.0 0.0 0.00 0.00 0.00 90 1027.4
20260509191018 6 0.0 0.0 0.00 0.00 0.00 90 1027.4
20260509190018 6 0.0 0.0 0.00 0.00 0.00 90 1027.2
20260509185018 6 0.0 0.0 0.00 0.00 0.00 90 1027.2
20260509184018 6 0.0 3.2 0.00 0.00 0.00 89 1027.1
20260509183018 6 0.0 3.2 0.00 0.00 0.00 89 1027.0
20260509182018 6 0.0 0.0 0.00 0.00 0.00 89 1026.9
20260509181018 6 0.0 0.0 0.00 0.00 0.00 88 1026.9